Terminal Aerodrome Forecast
Issued by NWS Pueblo, CO

Home | Current Version | Previous Version | Text Only | Print | Product List | Glossary On
Versions: 1 2 3 4 5 6 7 8 9 10 11 12 13 14 15 16 17 18 19 20 21 22 23 24 25 26 27 28 29 30
000
FTUS45 KPUB 221120
TAFALS
TAF
KALS 221120Z 2212/2312 VRB05KT P6SM SKC
     FM221800 08008KT P6SM FEW150
     FM222000 11012KT P6SM FEW100 SCT150
     FM222200 11012KT P6SM VCTS SCT100CB BKN150
     FM230200 VRB05KT P6SM SCT100 BKN150=

USA.gov is the U.S. government's official web portal to all federal, state and local government web resources and services.